| time (UTC) | temp F | wind direction | speed knots | gust knots | rain 1hr in | rain 24hr in | rain mn in | humidity % | barometer mb |
| 20260505173328 | 79 | 242 | 8.7 | 19.1 | 0.00 | 0.00 | 0.00 | 40 | 1005.8 |
| 20260505171850 | 77 | 167 | 7.8 | 19.1 | 0.00 | 0.00 | 0.00 | 43 | 1005.9 |
| 20260505170331 | 77 | 260 | 6.1 | 13.0 | 0.00 | 0.00 | 0.00 | 44 | 1006.1 |
| 20260505164832 | 76 | 272 | 4.3 | 14.8 | 0.00 | 0.00 | 0.00 | 45 | 1006.3 |
| 20260505163328 | 74 | 207 | 6.1 | 17.4 | 0.00 | 0.00 | 0.00 | 46 | 1006.7 |
| 20260505161830 | 73 | 190 | 10.4 | 18.2 | 0.00 | 0.00 | 0.00 | 46 | 1007.2 |
| 20260505160329 | 73 | 257 | 7.0 | 13.0 | 0.00 | 0.00 | 0.00 | 47 | 1007.5 |
| 20260505153327 | 71 | 198 | 12.2 | 19.1 | 0.00 | 0.00 | 0.00 | 48 | 1007.9 |
| 20260505151827 | 70 | 215 | 4.3 | 10.4 | 0.00 | 0.00 | 0.00 | 49 | 1008.2 |
| 20260505150346 | 68 | 240 | 4.3 | 14.8 | 0.00 | 0.00 | 0.00 | 50 | 1008.1 |
| 20260505140323 | 65 | 257 | 7.0 | 11.3 | 0.00 | 0.00 | 0.00 | 53 | 1008.2 |
| 20260505124822 | 59 | 223 | 1.7 | 7.8 | 0.00 | 0.00 | 0.00 | 60 | 1008.6 |
| 20260505123345 | 59 | 222 | 4.3 | 7.0 | 0.00 | 0.00 | 0.00 | 60 | 1008.7 |
| 20260505121824 | 58 | 183 | 2.6 | 5.2 | 0.00 | 0.00 | 0.00 | 60 | 1008.7 |
| 20260505120322 | 58 | 226 | 5.2 | 7.0 | 0.00 | 0.00 | 0.00 | 59 | 1008.4 |
| 20260505114843 | 58 | 215 | 1.7 | 4.3 | 0.00 | 0.00 | 0.00 | 59 | 1008.0 |
| 20260505113340 | 57 | 211 | 2.6 | 4.3 | 0.00 | 0.00 | 0.00 | 61 | 1008.4 |
| 20260505111822 | 56 | 176 | 1.7 | 3.5 | 0.00 | 0.00 | 0.00 | 62 | 1008.5 |
| 20260505110340 | 54 | 112 | 0.0 | 2.6 | 0.00 | 0.00 | 0.00 | 65 | 1008.4 |
| 20260505101839 | 52 | 187 | 0.9 | 2.6 | 0.00 | 0.00 | 0.00 | 67 | 1008.5 |
| 20260505100341 | 53 | 31 | 0.9 | 2.6 | 0.00 | 0.00 | 0.00 | 66 | 1008.4 |
| 20260505094842 | 52 | 267 | 0.9 | 2.6 | 0.00 | 0.00 | 0.00 | 66 | 1008.5 |
| 20260505093338 | 52 | 216 | 0.9 | 3.5 | 0.00 | 0.00 | 0.00 | 67 | 1008.5 |
| 20260505091838 | 52 | 153 | 0.9 | 1.7 | 0.00 | 0.00 | 0.00 | 67 | 1008.6 |
| 20260505090356 | 52 | 238 | 0.0 | 1.7 | 0.00 | 0.00 | 0.00 | 67 | 1008.5 |
| 20260505084839 | 53 | 355 | 0.0 | 1.7 | 0.00 | 0.00 | 0.00 | 66 | 1008.6 |
| 20260505083337 | 54 | 279 | 0.9 | 2.6 | 0.00 | 0.00 | 0.00 | 64 | 1008.6 |
| 20260505081837 | 54 | 255 | 2.6 | 4.3 | 0.00 | 0.00 | 0.00 | 64 | 1008.7 |
| 20260505080336 | 54 | 218 | 2.6 | 6.1 | 0.00 | 0.00 | 0.00 | 63 | 1009.0 |
| 20260505074840 | 54 | 215 | 3.5 | 7.0 | 0.00 | 0.00 | 0.00 | 64 | 1009.0 |
| 20260505073337 | 54 | 232 | 0.9 | 3.5 | 0.00 | 0.00 | 0.00 | 64 | 1008.9 |
| 20260505071837 | 54 | 204 | 0.9 | 2.6 | 0.00 | 0.00 | 0.00 | 63 | 1009.1 |
| 20260505070334 | 54 | 223 | 1.7 | 3.5 | 0.00 | 0.00 | 0.00 | 62 | 1009.0 |
| 20260505064838 | 54 | 256 | 2.6 | 4.3 | 0.00 | 0.00 | 0.00 | 62 | 1009.0 |
| 20260505063356 | 55 | 284 | 1.7 | 5.2 | 0.00 | 0.00 | 0.00 | 61 | 1009.1 |
| 20260505061835 | 55 | 218 | 3.5 | 7.8 | 0.00 | 0.00 | 0.00 | 60 | 1009.1 |
| 20260505060332 | 55 | 234 | 4.3 | 10.4 | 0.00 | 0.00 | 0.00 | 60 | 1009.1 |
| 20260505054832 | 56 | 221 | 7.0 | 13.0 | 0.00 | 0.00 | 0.00 | 58 | 1009.1 |
| 20260505053333 | 56 | 240 | 7.0 | 12.2 | 0.00 | 0.00 | 0.00 | 58 | 1009.0 |
| 20260505051833 | 56 | 232 | 4.3 | 7.0 | 0.00 | 0.00 | 0.00 | 57 | 1008.8 |
| 20260505050330 | 57 | 226 | 2.6 | 7.8 | 0.00 | 0.00 | 0.00 | 56 | 1008.9 |
| 20260505040327 | 58 | 221 | 0.9 | 1.7 | 0.00 | 0.00 | 0.00 | 50 | 1008.5 |
| 20260505034849 | 59 | 221 | 1.7 | 5.2 | 0.00 | 0.00 | 0.00 | 49 | 1008.4 |
| 20260505033325 | 59 | 284 | 2.6 | 5.2 | 0.00 | 0.00 | 0.00 | 48 | 1008.2 |
| 20260505031830 | 60 | 193 | 0.9 | 7.0 | 0.00 | 0.00 | 0.00 | 48 | 1008.1 |
| 20260505030327 | 59 | 181 | 2.6 | 4.3 | 0.00 | 0.00 | 0.00 | 49 | 1008.1 |
| 20260505024826 | 58 | 88 | 1.7 | 3.5 | 0.00 | 0.00 | 0.00 | 49 | 1008.2 |
| 20260505023323 | 59 | 119 | 0.9 | 2.6 | 0.00 | 0.00 | 0.00 | 48 | 1008.2 |
| 20260505021842 | 60 | 176 | 0.0 | 0.9 | 0.00 | 0.00 | 0.00 | 47 | 1008.1 |
| 20260505020323 | 61 | 176 | 0.0 | 0.9 | 0.00 | 0.00 | 0.00 | 45 | 1008.1 |
| 20260505014822 | 62 | 217 | 0.0 | 1.7 | 0.00 | 0.00 | 0.00 | 44 | 1008.0 |
| 20260505013340 | 62 | 155 | 0.9 | 5.2 | 0.00 | 0.00 | 0.00 | 44 | 1008.0 |
| 20260505011840 | 62 | 173 | 1.7 | 4.3 | 0.00 | 0.00 | 0.00 | 43 | 1007.8 |
| 20260505010321 | 62 | 207 | 2.6 | 4.3 | 0.00 | 0.00 | 0.00 | 43 | 1007.7 |
| 20260505004843 | 62 | 218 | 1.7 | 6.1 | 0.00 | 0.00 | 0.00 | 42 | 1007.4 |
| 20260505003339 | 62 | 227 | 4.3 | 6.1 | 0.00 | 0.00 | 0.00 | 42 | 1007.2 |
| 20260505001839 | 63 | 196 | 0.9 | 5.2 | 0.00 | 0.00 | 0.00 | 42 | 1006.9 |
| 20260505000334 | 63 | 234 | 3.5 | 5.2 | 0.00 | 0.00 | 0.00 | 42 | 1006.7 |
| 20260504234839 | 63 | 215 | 4.3 | 7.0 | 0.00 | 0.00 | 0.00 | 42 | 1006.6 |
| 20260504233336 | 64 | 223 | 1.7 | 4.3 | 0.00 | 0.00 | 0.00 | 42 | 1006.4 |
| 20260504231835 | 64 | 229 | 6.1 | 9.6 | 0.00 | 0.00 | 0.00 | 41 | 1006.3 |
| 20260504230331 | 65 | 245 | 6.1 | 11.3 | 0.00 | 0.00 | 0.00 | 40 | 1006.2 |
| 20260504224835 | 66 | 248 | 8.7 | 13.9 | 0.00 | 0.00 | 0.00 | 40 | 1006.1 |
| 20260504223332 | 66 | 217 | 7.8 | 16.5 | 0.00 | 0.00 | 0.00 | 39 | 1005.8 |
| 20260504221832 | 66 | 233 | 9.6 | 16.5 | 0.00 | 0.00 | 0.00 | 39 | 1005.6 |
| 20260504220328 | 67 | 254 | 7.0 | 14.8 | 0.00 | 0.00 | 0.00 | 39 | 1005.8 |
| 20260504214825 | 66 | 242 | 8.7 | 16.5 | 0.00 | 0.00 | 0.00 | 39 | 1005.8 |